RH
34 34 35 36 41 58 76 82 77 65 57 61 69 73 72 69 65 61 58 54 51 48 45 42 40 38 36 34 32 31 29 28 26 25 24 22 21 20 19 18 18 17 17 17 17 18 18 18 18 18 18 18 18 17 17 17 17 17 16 16 16 16 17 17 17 16 16 14 11 11 11 12 12 11 11 10 11 11 11 12 13 13 13 14 15 17 22 27
40 41 43 49 61 77 86 86 79 68 65 72 78 81 80 76 72 67 62 58 53 49 46 42 39 37 35 33 31 30 29 27 26 25 23 22 21 20 19 17 17 16 15 15 15 15 15 16 16 17 17 17 17 17 17 17 16 17 17 16 16 17 16 16 17 16 15 14 14 14 14 15 14 11 12 12 11 10 11 10 10 11 11 13 12 15 24 26
54 52 57 67 81 91 95 92 85 81 81 83 86 88 86 83 79 74 68 62 56 51 47 43 40 37 34 33 31 29 28 26 26 24 23 22 21 20 18 17 17 15 15 14 14 14 13 13 14 14 15 16 16 16 16 16 16 16 16 16 16 16 16 16 16 15 14 15 16 16 16 17 15 14 14 13 13 13 12 11 13 13 9 11 9 12 18 19
76 74 78 87 97 100 102 100 96 94 93 91 89 89 88 87 83 79 72 64 58 52 47 42 39 36 33 31 29 28 27 25 24 23 22 21 20 19 18 17 16 15 14 14 13 13 12 12 12 12 12 13 14 15 16 16 16 16 16 16 15 15 15 15 14 14 14 14 15 15 16 16 15 15 15 15 16 14 13 14 16 16 12 12 12 12 14 22
102 103 101 101 103 104 106 107 104 99 94 90 87 84 84 83 81 77 70 62 56 50 45 41 37 34 32 29 28 26 24 23 22 21 20 19 18 17 16 15 14 14 13 12 12 11 12 11 11 11 11 11 12 13 13 14 15 15 15 15 15 15 14 14 13 14 14 14 14 14 14 14 14 14 14 15 15 14 16 18 16 15 16 15 14 13 17 30
110 113 108 102 101 103 108 108 103 97 91 88 84 82 81 78 76 72 65 59 53 48 43 39 35 32 29 27 25 23 22 21 20 19 18 17 17 15 15 14 13 12 12 11 11 11 11 10 10 10 10 10 11 11 11 12 13 14 15 15 15 15 14 14 13 13 13 13 13 14 13 13 13 13 13 13 13 13 15 18 16 16 22 25 24 20 22 36
103 106 104 103 103 106 112 110 102 95 91 88 86 84 80 75 71 67 62 56 50 45 40 36 33 30 27 25 23 22 20 19 18 17 16 15 14 14 13 12 12 11 11 11 10 11 10 10 10 10 10 10 10 11 11 11 11 12 13 13 14 14 14 14 13 13 13 14 13 13 13 13 13 12 12 12 12 12 11 13 14 17 24 30 29 24 22 29
100 101 102 104 104 107 113 114 109 103 97 95 92 86 79 72 67 62 56 51 46 41 37 34 31 28 26 24 22 20 18 17 16 15 14 14 12 12 12 11 11 11 11 11 11 11 11 11 11 10 10 10 10 10 10 10 10 11 12 12 12 13 13 14 14 13 13 13 12 12 13 13 13 12 12 12 12 11 11 10 12 13 16 24 29 29 30 31
102 101 102 104 102 102 105 107 109 108 104 99 91 83 75 68 61 55 50 46 42 38 35 32 28 26 24 22 19 18 17 15 14 14 13 13 12 12 12 12 12 13 13 13 13 13 13 13 13 12 12 11 11 11 11 11 11 11 11 11 11 11 12 13 13 12 13 13 12 13 13 13 12 12 12 12 12 11 11 10 11 11 11 22 27 28 37 40
103 102 101 101 100 99 99 101 103 103 99 93 84 77 69 63 56 51 47 43 39 35 32 29 25 23 21 19 17 16 15 14 14 13 13 13 14 14 14 15 14 15 15 15 16 16 16 16 15 15 14 14 14 13 13 13 13 13 12 12 11 11 11 12 12 12 13 12 12 13 12 13 12 12 12 12 12 12 12 11 11 12 12 18 20 20 25 27
103 103 102 102 101 100 100 99 97 94 89 83 77 71 64 58 53 48 44 39 35 31 28 25 23 21 19 17 16 15 14 15 14 14 15 16 16 17 17 18 18 18 18 18 18 18 19 18 18 18 17 18 16 16 16 15 16 14 13 13 12 12 12 11 12 11 12 12 12 12 12 12 11 12 13 13 13 12 12 12 12 12 13 13 13 14 15 17
93 94 96 97 98 97 96 94 90 86 82 77 71 64 59 53 48 43 38 34 31 28 25 23 21 19 18 17 16 15 15 16 16 17 18 19 20 21 21 21 21 20 19 20 19 19 19 18 18 19 19 18 18 18 18 18 19 17 16 16 15 14 14 13 12 12 12 12 12 12 13 13 13 14 14 13 12 13 14 14 14 13 13 13 12 13 16 17
76 77 79 81 82 83 82 80 78 76 72 67 62 57 52 46 42 38 34 31 28 26 24 22 20 18 18 17 16 16 18 18 19 22 23 24 25 24 24 23 21 21 20 19 18 18 18 18 18 18 18 17 18 19 18 19 20 20 20 19 18 17 16 15 14 14 14 14 14 14 14 14 15 15 14 14 12 14 16 15 17 17 15 15 14 15 17 18
60 61 62 63 65 65 65 64 62 60 58 55 52 49 45 41 37 34 32 29 27 25 23 21 20 19 18 17 18 20 21 22 25 27 28 28 27 25 24 22 21 20 19 18 17 17 17 17 17 17 17 17 18 18 18 20 20 21 21 20 21 19 19 19 18 17 16 16 16 15 16 16 17 17 16 15 15 16 17 17 20 20 20 19 17 18 21 23
46 47 49 50 51 51 51 51 51 50 48 47 45 42 40 38 35 33 31 29 27 25 23 22 20 19 19 19 22 24 24 28 31 30 29 28 27 25 23 21 20 19 18 17 17 17 17 17 17 17 16 17 17 17 17 19 20 20 20 20 21 20 21 22 21 20 19 19 18 18 18 18 19 20 19 17 16 18 17 21 25 23 22 21 20 20 22 26
34 36 38 39 41 42 43 43 43 43 42 41 39 38 37 35 34 33 31 29 27 25 23 21 20 20 21 22 27 30 31 32 32 30 29 27 25 23 22 20 19 18 18 18 17 18 17 17 17 17 17 17 17 16 17 19 19 19 19 20 21 22 22 23 23 22 21 20 20 21 21 22 24 23 24 19 16 20 22 26 29 27 24 22 23 21 25 30
27 28 28 30 32 34 35 37 37 37 37 37 36 35 35 34 34 33 31 29 26 25 23 21 21 22 24 29 33 35 35 33 31 30 28 26 24 22 21 20 19 19 19 18 18 18 18 18 18 17 17 17 17 17 17 18 18 19 19 20 21 22 22 23 24 22 22 23 23 25 24 26 28 27 27 22 19 25 28 30 32 31 25 23 24 21 27 27
26 27 27 27 27 28 29 31 32 33 33 34 34 34 34 34 33 32 31 29 26 24 23 22 23 25 29 35 37 37 36 34 31 29 27 25 23 21 20 20 20 20 20 19 19 18 18 18 18 18 18 18 18 17 18 18 19 20 19 20 20 21 22 23 24 21 22 27 25 24 28 32 32 32 31 26 25 31 34 32 32 33 27 23 24 23 29 28
28 29 30 29 28 28 28 29 30 32 32 32 33 33 33 33 32 32 30 27 26 24 23 25 27 30 36 39 39 38 37 35 31 29 28 26 22 21 21 21 21 20 20 20 19 19 19 18 18 18 18 19 19 18 19 19 19 19 19 19 19 20 21 22 24 22 21 28 27 24 32 38 34 35 36 30 31 36 36 35 33 34 29 23 26 27 31 33
30 30 30 31 31 30 29 30 32 33 34 33 33 32 31 31 31 30 29 27 26 24 25 29 32 35 41 42 39 38 37 34 31 29 28 26 23 22 22 22 21 21 20 20 19 19 19 19 19 19 19 19 19 19 19 19 19 19 19 20 20 20 21 22 24 24 21 26 29 25 34 41 36 39 41 35 37 39 37 38 39 37 32 26 27 30 33 33
33 32 31 32 32 32 32 33 34 35 36 35 34 32 30 30 30 30 29 27 26 27 31 35 39 42 43 43 39 37 37 34 31 31 29 26 24 23 23 23 22 21 21 20 20 20 19 20 19 19 20 19 19 19 19 19 19 19 20 20 20 20 22 22 24 26 21 22 28 29 35 41 38 41 44 39 41 43 38 38 40 38 34 29 28 33 32 31
34 34 35 34 33 33 34 34 36 36 36 36 35 32 31 30 30 30 30 29 26 31 40 41 45 48 44 42 40 37 37 35 32 32 30 27 25 24 25 23 23 22 21 20 20 20 20 20 20 19 19 19 19 19 19 20 19 20 21 20 21 21 21 21 23 26 20 18 28 33 36 40 39 40 42 39 39 44 41 38 41 41 35 29 28 32 31 42
36 36 36 36 36 36 36 35 36 36 36 36 35 34 33 32 31 30 31 31 27 36 51 51 50 52 46 42 40 38 37 36 35 34 31 28 26 26 26 24 23 22 21 21 20 20 20 20 19 19 19 19 19 19 19 20 20 21 20 20 21 20 21 22 23 24 20 19 28 34 34 36 36 35 37 38 37 41 44 40 41 41 33 27 29 31 32 44
38 39 39 39 39 39 38 37 36 37 37 37 37 37 35 33 33 32 32 33 31 41 60 61 54 53 47 42 41 39 38 38 38 36 32 28 27 27 27 24 23 22 21 21 20 20 20 19 19 19 19 18 20 20 20 20 20 21 20 21 21 21 22 22 22 22 19 20 27 31 28 30 34 34 37 38 34 37 41 39 38 39 33 28 29 30 32 35
41 41 43 43 43 43 42 40 40 40 38 39 40 39 37 35 34 32 33 35 39 52 68 70 61 53 48 45 42 39 39 41 40 37 33 29 29 30 28 25 24 23 21 20 20 20 19 19 19 19 19 20 21 20 20 20 21 21 21 22 22 21 22 23 22 21 20 22 28 29 24 28 34 34 35 34 31 33 36 34 33 34 30 28 28 28 28 23
48 47 46 48 49 49 47 45 44 42 42 43 43 41 39 37 34 35 34 37 51 67 74 74 66 57 50 45 42 40 41 43 40 38 36 31 30 31 28 26 25 23 21 20 20 19 19 19 19 19 20 20 21 21 21 21 21 22 22 22 23 22 22 23 22 20 21 23 26 26 23 27 32 32 33 31 28 30 31 31 29 29 28 27 27 25 26 31
56 55 53 54 54 54 53 51 47 45 46 47 46 43 41 40 36 36 36 40 61 78 80 77 69 58 52 45 41 42 43 45 42 40 38 31 31 33 30 28 25 23 22 20 20 20 19 18 19 20 20 21 21 21 22 22 22 23 23 24 23 23 23 24 23 23 25 25 24 25 23 25 29 30 30 27 27 27 28 29 26 26 25 24 25 22 34 68
55 56 56 56 56 56 55 53 51 48 48 49 48 45 45 44 40 39 39 46 70 87 87 80 66 56 52 45 41 43 45 47 44 40 38 35 36 37 33 29 26 24 22 20 20 19 18 18 19 20 19 21 22 22 23 24 24 25 25 25 25 25 26 25 25 25 27 27 25 25 25 25 27 29 30 27 26 25 26 28 25 26 25 22 24 19 33 80
52 52 53 53 54 54 53 55 54 50 50 51 49 48 49 47 43 44 43 53 81 95 86 75 63 53 51 47 43 44 47 48 44 40 40 40 39 37 34 31 27 25 22 20 20 19 19 19 19 19 20 22 23 23 24 25 25 26 26 27 27 27 27 27 29 28 29 29 27 28 28 26 26 29 30 27 26 26 25 25 25 25 25 21 21 19 21 46
53 53 53 53 55 55 55 58 57 55 53 52 52 51 51 49 46 46 48 63 86 89 74 66 60 52 49 48 44 44 47 48 45 46 47 43 39 37 37 35 30 27 23 20 20 19 19 19 19 20 22 23 23 23 25 26 27 27 27 28 28 27 29 29 30 30 29 28 28 30 29 27 30 30 29 29 30 28 23 25 29 28 25 25 27 26 20 21
56 56 55 55 57 57 58 58 58 58 56 55 55 52 52 51 46 48 62 76 83 76 64 60 57 52 50 46 44 46 49 49 48 51 50 44 41 40 41 38 33 28 24 22 20 20 20 20 21 21 21 22 23 24 26 26 26 27 28 28 27 27 28 29 31 32 31 29 30 32 31 31 35 35 35 34 32 32 31 26 28 30 27 28 31 24 26 49
59 59 57 57 58 59 61 61 59 59 58 58 55 52 52 47 46 66 83 84 79 71 64 59 53 51 50 44 45 49 50 50 52 53 51 48 44 42 44 43 37 30 26 23 21 20 20 21 21 20 20 21 23 25 26 26 26 28 28 27 27 27 27 28 31 32 32 32 33 33 31 33 38 40 38 35 37 51 59 42 32 44 43 38 42 35 40 83
62 60 60 60 60 62 64 64 62 60 59 59 55 53 50 45 60 91 96 85 82 75 66 59 51 50 51 45 44 48 49 54 57 54 52 52 47 43 48 49 42 34 29 24 21 21 21 22 21 20 21 22 24 25 26 26 27 28 27 27 28 27 27 28 30 33 34 36 37 35 32 35 43 45 38 33 36 48 60 57 60 75 70 50 46 45 52 76
74 68 64 60 59 60 61 64 63 60 57 55 53 51 48 50 73 98 96 88 87 77 65 57 48 49 52 46 42 46 51 57 61 60 56 54 49 46 52 54 47 39 32 25 23 23 24 24 23 23 23 24 26 26 26 28 28 29 29 28 29 27 27 28 31 34 34 34 34 31 31 37 43 41 35 36 40 40 43 51 63 77 81 67 46 47 76 85
93 89 81 71 63 59 58 60 60 57 54 51 48 47 47 53 71 86 92 93 88 75 62 52 48 52 54 50 47 49 54 59 62 63 59 56 54 52 57 60 52 43 35 29 25 26 28 28 27 26 25 24 26 25 27 28 28 31 31 29 32 34 30 28 31 34 32 34 36 33 36 45 45 40 39 40 41 44 44 44 54 72 89 91 67 54 78 87
96 96 93 86 79 72 68 67 65 61 56 50 46 47 49 52 59 68 79 89 85 70 55 48 48 53 57 55 49 49 54 57 59 62 62 60 58 55 59 64 58 48 39 33 30 30 31 33 32 29 27 27 27 26 29 32 33 34 32 32 37 42 41 39 40 38 35 38 41 36 38 46 47 43 42 42 43 52 57 54 66 87 94 97 93 78 69 59
93 92 91 90 87 84 81 81 78 73 67 59 55 57 58 56 58 63 69 78 77 60 50 52 52 55 59 56 50 50 52 53 56 63 67 64 59 58 64 70 66 54 44 37 35 36 37 40 45 40 33 32 29 27 30 33 34 35 36 37 42 49 51 51 51 46 40 46 48 43 47 56 56 47 44 51 53 58 66 67 80 102 100 92 92 84 70 55
82 82 83 83 83 82 83 84 81 77 73 68 67 67 65 62 65 67 66 70 70 57 53 58 56 55 55 53 54 54 51 56 60 63 70 68 62 62 65 68 67 57 47 41 38 40 45 54 57 49 45 44 35 29 33 37 37 39 45 46 44 48 47 49 64 66 60 66 64 54 58 68 68 56 49 51 49 53 65 66 77 97 92 78 72 70 74 76
66 67 67 67 67 67 69 70 70 70 68 66 67 67 64 62 65 68 67 68 67 60 58 59 57 56 55 56 61 57 54 62 69 71 77 74 68 66 64 69 75 68 53 43 40 43 57 70 65 56 64 64 47 37 38 42 44 44 52 56 52 59 64 67 79 78 69 79 80 65 55 56 65 64 53 49 49 52 54 47 57 78 75 67 75 86 93 96
61 61 60 59 57 55 54 55 54 55 55 55 56 57 59 59 60 64 67 66 60 60 64 61 55 56 56 57 60 56 54 61 71 76 76 76 78 80 79 77 78 72 62 56 51 50 64 79 71 71 85 76 62 62 52 51 58 51 53 63 63 76 93 92 89 85 84 95 101 90 67 50 56 63 58 56 52 45 46 53 70 88 89 87 93 99 100 99
61 60 60 60 59 57 54 53 51 49 47 47 46 47 48 49 51 54 56 55 53 58 63 57 49 51 53 55 60 59 55 59 67 69 76 92 98 96 97 89 80 85 90 84 68 55 67 83 74 79 96 83 75 83 68 64 73 56 48 62 67 78 94 95 94 98 99 99 99 101 89 63 51 53 52 53 51 52 69 87 96 97 98 99 97 97 97 97
62 62 63 63 63 61 58 56 55 53 52 50 48 48 48 47 49 48 47 48 48 51 53 47 46 49 50 55 61 58 54 60 65 63 76 96 94 88 102 104 97 104 104 89 69 54 68 89 82 82 102 98 90 90 76 69 71 57 52 61 64 69 74 78 92 101 97 92 89 96 98 80 59 52 46 42 49 73 100 108 104 103 104 103 101 102 101 99
64 61 60 59 57 56 54 52 51 49 49 49 47 49 50 50 53 53 52 53 50 49 48 43 43 45 45 52 56 52 50 55 59 61 69 76 70 73 94 105 104 104 99 91 76 58 67 90 93 94 104 104 100 98 87 77 74 72 69 66 66 72 71 72 87 96 93 88 83 86 93 86 69 55 45 40 43 62 87 100 95 91 93 93 93 99 99 97
56 52 48 46 44 43 42 40 40 38 38 39 39 40 42 44 46 48 51 53 51 51 51 47 45 45 45 51 54 49 46 48 52 59 65 66 67 76 91 101 104 101 100 98 80 66 81 98 100 102 102 99 101 103 97 90 86 81 72 67 73 81 80 78 81 86 86 83 79 79 81 79 67 53 43 42 42 43 53 69 69 59 63 72 79 87 89 85
45 42 39 37 35 34 33 32 31 30 29 30 31 31 31 32 35 37 40 43 44 46 48 48 49 50 50 56 56 49 47 50 52 56 60 61 67 81 93 101 108 105 103 105 90 79 94 102 97 101 103 99 100 102 101 100 98 90 83 85 90 89 86 82 75 75 78 82 86 83 75 68 64 62 55 46 45 45 41 46 55 59 66 77 81 80 75 70
40 38 35 34 32 31 30 29 28 27 26 26 27 27 26 26 28 30 31 33 35 36 39 43 46 49 54 63 64 57 56 58 56 59 66 67 68 81 90 95 106 107 103 110 104 86 80 79 80 92 100 101 101 100 101 101 100 100 99 99 99 95 91 83 75 75 80 89 97 93 86 79 67 63 63 51 44 53 56 52 58 69 72 70 69 66 61 58
40 38 36 34 32 31 29 28 28 27 26 26 26 27 26 24 26 26 25 26 27 27 30 34 38 42 49 57 60 60 61 63 65 69 75 73 72 81 89 93 103 105 102 105 102 89 78 68 66 77 89 98 103 101 100 101 99 101 103 101 98 96 91 86 88 93 96 98 96 87 86 86 71 59 60 57 48 53 67 70 66 72 76 64 58 61 61 55
41 39 36 34 33 31 29 27 28 28 28 27 26 26 25 24 25 26 25 24 24 22 23 26 30 36 41 46 52 58 62 68 76 77 71 68 72 80 89 96 103 106 107 102 93 89 88 77 68 71 75 85 100 103 99 100 101 100 102 102 100 101 101 100 101 103 105 103 96 90 90 90 84 78 76 76 65 53 56 60 55 56 60 54 49 52 50 45
41 39 36 34 32 31 29 27 27 27 28 28 27 26 26 24 24 24 24 24 24 23 23 24 27 31 35 39 44 52 59 66 73 74 66 67 79 88 94 101 103 103 105 102 94 92 94 88 80 74 64 67 89 103 101 100 101 100 100 102 102 100 101 104 102 99 104 108 103 100 99 98 100 99 95 94 87 74 63 57 56 56 52 46 44 46 47 50
40 37 35 34 33 31 29 28 27 27 27 27 26 26 25 24 24 24 23 24 25 24 23 24 27 28 31 36 39 44 55 63 71 83 86 84 92 102 104 106 106 103 103 106 103 98 99 99 92 83 74 66 72 91 101 102 103 102 99 102 103 98 95 100 102 97 100 106 105 101 99 102 106 104 101 100 99 96 86 73 68 68 64 62 57 49 51 58
39 37 36 36 35 33 31 29 28 28 27 26 26 24 23 22 22 22 22 23 24 24 24 26 28 27 27 32 36 41 52 59 68 91 106 102 103 110 108 106 108 107 101 100 101 99 99 102 100 99 97 80 66 75 90 96 101 105 104 103 104 100 94 96 100 100 99 100 102 102 101 101 103 102 103 104 101 102 101 95 88 80 74 77 77 70 67 68
40 39 37 37 36 35 34 32 30 29 27 26 24 22 20 19 18 18 19 21 22 23 26 28 29 28 27 30 32 37 48 53 58 77 95 97 99 105 105 104 107 108 101 95 98 103 104 105 106 109 109 95 78 74 78 81 85 92 99 103 105 103 98 94 96 99 101 102 101 101 101 100 100 102 104 103 100 99 101 102 101 95 84 76 74 78 82 82
Wind_Speed
70 69 68 67 67 66 65 65 65 64 64 63 63 63 63 63 63 64 65 65 66 66 67 68 68 68 69 69 69 70 70 70 70 70 71 71 71 72 72 73 73 74 75 76 77 78 79 79 81 81 82 83 84 85 86 87 87 87 86 87 88 88 90 90 92 93 94 94 88 84 82 84 90 88 88 90 90 90 89 90 89 88 88 87 88 87 85 83
67 67 66 66 65 65 64 64 63 63 63 63 63 63 64 64 64 65 66 66 67 67 68 68 69 69 70 70 70 71 71 71 71 71 72 73 73 73 74 74 74 75 76 77 78 78 79 80 80 81 81 81 82 83 84 85 86 85 85 86 86 87 90 91 93 94 92 90 86 84 83 88 92 87 87 90 88 88 87 88 87 86 85 85 86 84 82 81
64 64 64 64 64 63 63 63 63 63 63 63 64 64 65 65 66 66 67 67 68 68 68 69 69 70 70 71 71 72 72 71 71 72 74 74 74 75 75 75 76 77 77 78 79 80 80 81 81 81 81 82 82 82 83 83 83 84 85 84 85 87 89 91 92 92 88 86 86 84 84 90 92 87 87 89 88 88 87 86 83 83 84 85 83 81 81 80
62 62 62 62 62 62 62 62 63 63 64 64 64 65 66 66 67 67 68 68 69 69 69 70 70 71 71 71 72 72 73 72 72 75 76 75 75 76 76 77 77 78 78 79 80 81 81 82 82 82 82 83 83 83 83 83 83 84 83 83 85 87 88 90 89 87 84 84 84 83 86 91 89 86 88 88 88 88 88 86 82 82 84 84 81 79 78 77
60 60 60 61 61 61 62 63 63 64 64 65 65 66 66 67 68 68 68 69 69 70 70 70 71 71 72 72 73 73 74 72 73 77 77 76 77 77 77 77 77 78 79 79 80 81 82 82 83 83 83 83 84 84 84 84 85 85 83 84 86 87 87 88 85 83 82 81 82 83 86 87 84 85 87 87 87 87 86 84 84 83 83 82 80 78 76 74
59 60 60 60 61 61 62 63 64 64 65 65 66 66 67 67 68 68 69 69 70 70 71 71 71 72 72 73 74 74 74 73 74 78 77 76 77 77 77 77 77 78 78 79 80 81 82 82 83 83 83 84 84 84 85 86 86 85 85 86 88 87 86 86 83 81 80 81 82 83 84 83 82 84 85 84 85 85 83 82 82 80 78 77 75 76 74 72
58 59 60 61 62 62 63 63 64 65 65 65 66 66 67 67 68 69 69 70 70 71 71 72 72 72 73 73 74 74 74 72 73 77 76 75 76 76 76 76 76 76 77 78 79 80 81 81 82 82 83 83 84 84 85 86 86 86 86 88 89 88 86 86 84 79 79 83 84 82 82 82 82 83 82 82 82 82 82 81 80 78 76 73 72 72 73 71
58 58 59 60 61 62 63 63 64 64 65 65 66 66 67 68 68 69 69 70 70 71 71 72 72 72 73 73 73 73 72 70 72 74 73 73 74 74 74 74 74 74 75 76 76 77 78 79 80 81 81 82 83 83 84 85 85 85 87 89 89 89 87 86 85 80 81 85 83 82 83 83 83 82 80 81 82 80 80 80 78 77 77 74 70 69 69 67
59 59 59 60 61 61 62 63 63 64 65 65 66 67 67 68 68 69 69 70 70 71 71 71 71 71 71 71 71 70 69 69 71 72 71 72 72 71 71 71 71 71 72 72 73 74 75 76 77 78 79 80 81 81 82 82 82 83 86 88 89 88 86 86 85 82 83 85 82 83 84 83 84 82 80 82 82 80 79 78 76 76 75 72 68 66 64 60
61 61 61 61 62 62 62 63 64 64 65 66 66 67 67 68 68 68 69 69 69 70 70 70 70 70 70 69 69 68 67 68 69 69 69 68 69 69 68 68 68 68 68 69 70 70 71 72 74 75 75 76 77 77 78 79 80 82 84 86 86 85 85 85 84 83 84 84 82 83 84 83 83 81 80 82 80 78 79 78 76 74 74 71 68 68 66 63
62 62 62 63 63 63 64 64 65 65 66 66 66 67 67 67 67 68 68 68 68 68 68 69 68 68 68 68 68 66 65 66 66 66 65 65 66 65 65 65 65 65 65 66 66 67 68 69 70 71 72 73 74 74 76 76 78 80 81 82 82 82 83 83 82 82 83 83 82 83 83 83 82 80 80 81 79 77 78 77 76 74 73 72 70 69 67 65
63 63 63 63 64 64 64 65 65 65 66 66 66 66 67 67 67 67 67 67 67 67 67 67 67 67 66 66 66 63 62 64 62 62 62 62 62 62 62 61 62 62 62 63 64 65 66 67 67 69 70 71 71 72 73 73 74 76 77 78 79 79 79 79 79 80 80 80 80 80 80 80 78 78 79 80 78 75 75 75 74 73 71 71 71 68 65 63
65 65 65 65 65 65 65 65 65 65 65 66 66 66 66 66 66 66 67 67 67 67 67 66 66 65 64 64 62 60 60 60 59 58 59 58 59 59 59 59 60 60 60 61 62 63 65 65 66 68 69 68 69 71 70 70 72 74 74 75 76 76 75 76 76 77 77 77 77 76 77 76 76 77 78 78 74 72 73 73 72 72 69 69 68 65 63 62
68 68 67 67 67 67 66 66 66 66 66 66 66 66 66 66 66 66 66 66 66 66 66 65 64 62 62 61 59 58 57 56 55 56 56 56 56 57 57 57 58 58 59 60 61 62 63 64 66 68 67 66 69 70 67 68 71 72 73 72 73 73 71 72 73 73 73 73 73 73 73 73 73 75 75 74 71 70 71 70 70 69 66 65 65 63 61 59
71 71 71 70 70 70 69 69 68 68 68 67 67 67 66 66 66 66 66 66 65 65 64 63 62 60 59 58 56 55 54 52 53 54 53 54 55 55 56 56 56 57 58 59 59 60 62 63 64 66 65 65 69 68 65 67 70 71 71 70 70 69 68 70 70 69 69 70 70 69 68 69 70 70 72 71 68 67 69 67 67 67 64 63 63 61 59 57
72 73 73 73 73 72 72 71 71 70 70 69 69 68 67 66 66 66 65 65 64 63 62 61 59 58 56 55 53 52 50 50 52 52 51 52 53 53 54 54 55 55 56 57 57 58 60 61 62 64 64 64 67 65 64 67 68 69 69 67 68 67 67 68 68 67 67 66 65 64 65 65 66 67 69 69 64 64 66 64 64 66 64 61 61 59 57 55
72 73 73 74 74 74 74 73 73 72 71 71 70 69 68 67 66 65 64 63 62 61 60 58 57 56 53 52 51 50 48 49 50 50 50 51 51 51 52 53 53 53 54 54 55 57 58 59 61 62 62 63 64 63 63 65 66 67 67 66 67 66 66 66 67 66 63 63 62 61 62 62 64 65 66 66 61 60 64 63 63 65 63 60 58 57 56 55
71 72 72 73 73 73 73 73 73 72 71 71 70 70 68 66 65 63 61 60 59 58 57 56 55 53 51 50 49 47 47 48 49 48 48 49 49 49 50 51 50 51 52 52 54 55 56 58 58 59 59 60 62 61 62 63 65 66 66 66 66 66 65 65 67 66 60 60 62 59 59 61 61 62 63 62 58 59 63 62 62 63 62 59 55 53 52 52
68 69 70 71 71 71 71 71 71 70 70 69 69 68 67 64 62 59 58 57 56 55 55 54 53 50 49 48 47 45 46 48 47 46 47 48 47 47 48 49 48 49 50 51 52 53 54 55 55 55 57 58 60 60 61 63 65 66 65 65 65 64 64 63 65 65 59 58 61 56 56 61 59 59 62 59 57 59 61 60 60 61 61 56 52 50 49 49
65 66 66 67 69 69 70 69 69 69 68 67 66 66 64 61 59 56 56 55 53 53 53 52 51 48 47 47 45 45 46 47 45 44 45 46 45 45 46 46 46 47 48 49 50 50 51 52 52 53 55 56 58 58 59 62 63 62 62 62 63 62 62 62 63 65 61 56 58 56 55 60 58 57 60 57 56 59 58 57 58 59 58 53 49 47 48 49
64 64 64 65 66 67 68 68 67 67 67 66 65 64 61 59 56 54 54 53 52 52 52 51 49 47 45 45 45 44 45 45 43 43 44 43 43 43 44 44 44 45 46 46 47 47 48 48 50 52 53 54 55 55 57 59 58 58 59 60 61 60 61 62 61 66 63 53 56 56 55 61 58 57 60 56 54 57 57 55 55 57 55 51 47 45 46 47
63 63 63 64 64 64 65 66 66 66 65 65 64 63 61 58 55 52 52 52 51 50 51 49 47 46 45 44 45 44 43 43 41 42 43 41 41 41 42 42 43 44 44 43 44 45 45 47 49 50 51 51 52 53 54 55 55 56 57 58 59 59 61 61 60 66 62 50 54 57 57 61 60 58 59 55 53 55 56 54 52 55 54 48 44 42 44 44
60 60 61 62 62 62 63 64 64 64 64 64 64 63 61 58 55 52 50 51 50 49 49 48 45 44 44 44 44 43 42 41 40 40 41 40 40 40 41 41 41 41 41 41 43 44 45 46 47 48 49 49 49 50 52 53 53 55 56 57 58 58 59 60 61 65 60 51 54 60 60 61 60 57 56 56 54 52 55 53 51 54 52 45 40 40 43 43
55 57 58 58 59 60 62 62 62 62 62 62 62 61 60 57 54 51 49 49 49 47 46 47 45 43 43 43 43 43 40 40 39 40 40 39 38 39 40 39 39 39 40 41 42 42 43 45 46 46 47 45 46 49 51 51 52 53 54 54 55 57 57 59 61 62 58 52 55 62 60 57 57 56 55 57 55 51 54 54 51 52 49 42 38 40 41 40
50 52 53 54 55 56 58 59 59 60 59 59 59 59 58 55 52 50 47 47 48 46 44 47 46 42 42 43 43 42 39 39 39 39 39 38 37 38 38 37 37 38 39 39 40 41 42 43 44 44 44 44 47 49 50 50 51 51 52 52 54 56 55 57 60 59 55 52 56 62 59 54 56 57 56 58 55 51 53 53 50 50 47 41 38 39 39 37
45 47 49 50 51 52 54 55 57 57 56 55 56 56 55 53 50 48 46 45 46 45 43 46 46 42 41 42 42 40 38 39 38 37 38 37 36 37 37 36 36 37 37 38 39 41 42 41 41 42 43 45 47 48 48 48 49 49 50 51 53 53 53 56 57 55 53 54 58 60 57 55 56 57 57 58 55 52 53 52 50 47 45 42 38 38 37 35
42 43 44 45 47 48 50 51 53 53 52 53 54 53 52 51 48 46 44 43 44 44 44 46 46 43 41 41 41 40 38 38 37 36 37 36 34 36 36 35 35 35 36 37 38 40 41 39 40 42 44 45 45 46 47 47 46 47 48 49 50 50 51 52 53 52 52 56 58 57 56 55 56 56 57 57 55 52 52 51 49 47 45 42 38 38 37 31
39 40 41 42 43 44 46 48 49 50 49 51 52 50 50 49 47 44 43 42 42 44 45 46 46 43 41 41 40 39 38 38 37 36 36 34 33 35 35 34 34 34 36 36 37 40 39 38 41 43 43 43 44 45 45 45 45 46 46 46 47 47 48 49 50 50 51 54 54 53 54 55 53 54 55 55 54 51 50 50 48 46 45 42 39 38 37 32
37 37 38 39 40 42 43 44 47 47 47 49 49 48 48 47 45 44 43 40 41 46 46 45 46 43 41 40 39 39 37 37 36 35 35 34 34 34 34 34 34 33 35 36 37 38 37 38 41 41 41 43 44 44 44 43 44 45 44 44 45 45 46 47 47 49 51 52 50 50 53 53 51 52 53 53 51 50 49 48 46 45 43 42 40 38 37 36
34 35 35 36 37 39 40 42 44 45 46 46 46 46 46 45 44 43 41 39 42 48 45 44 46 43 41 40 39 38 38 37 35 34 35 35 34 34 33 33 33 33 34 35 36 37 37 38 40 41 42 44 44 43 43 44 44 44 43 44 45 45 45 45 46 48 50 49 47 48 50 49 49 51 50 49 49 49 47 44 42 42 41 38 37 37 33 35
33 33 34 34 35 37 38 40 42 43 44 45 45 45 45 45 44 42 40 40 45 48 44 44 45 42 41 40 38 38 38 37 35 35 36 35 33 33 32 33 33 33 34 35 35 36 36 38 41 43 44 44 42 42 44 45 44 43 43 45 45 45 45 45 45 47 48 47 46 47 47 45 46 48 47 45 44 44 42 41 41 39 36 36 35 33 29 32
33 33 33 33 34 36 37 40 41 42 43 44 45 45 44 45 42 40 42 45 48 47 44 44 44 41 41 40 38 39 38 37 36 36 36 34 33 33 32 32 32 32 33 35 36 35 36 39 42 44 43 42 42 43 45 44 43 43 44 44 45 45 45 44 45 46 46 45 45 46 46 44 45 46 43 41 39 36 34 35 36 33 31 33 32 27 26 31
34 34 34 34 35 36 38 40 42 42 44 44 45 45 44 43 41 42 46 48 49 48 45 45 43 41 42 40 39 39 38 37 38 37 35 34 34 33 32 32 31 32 34 35 34 33 35 39 40 41 41 40 42 43 43 43 42 43 44 44 45 45 44 43 45 45 45 45 46 46 45 43 43 43 42 41 38 36 32 30 30 27 27 29 29 24 24 33
36 36 36 36 37 37 39 41 43 44 44 44 44 45 44 42 43 46 49 50 51 50 47 46 44 42 43 41 40 39 38 37 38 38 36 34 34 33 32 32 30 32 34 34 33 33 35 37 38 40 40 41 42 42 42 42 42 43 44 43 44 44 44 44 45 46 46 46 46 46 43 43 43 42 41 40 37 36 34 32 31 28 26 28 28 24 24 32
37 37 38 38 38 38 39 41 43 44 45 45 45 44 43 43 46 49 50 52 53 51 49 47 45 44 44 42 40 40 39 38 38 38 36 34 34 34 33 32 31 32 33 32 33 34 34 35 37 39 40 41 42 41 41 41 42 43 44 43 43 44 44 44 45 46 45 44 44 44 42 42 43 42 40 38 35 33 33 34 33 29 27 26 26 26 30 34
38 39 40 40 40 40 41 42 44 45 45 45 44 43 44 46 49 50 52 53 55 53 49 47 46 46 45 43 42 41 40 40 38 37 36 35 35 35 35 33 31 32 32 32 33 33 34 35 36 38 39 40 41 41 41 42 43 44 44 43 43 44 44 44 45 45 44 44 44 44 42 42 43 41 39 38 35 34 33 33 32 29 28 27 26 29 34 35
39 40 40 41 42 42 42 43 45 46 46 46 44 44 46 48 49 51 52 54 55 53 49 48 49 47 46 46 44 43 42 41 38 36 36 37 36 35 35 34 33 33 33 32 33 33 33 33 34 36 37 39 41 41 41 42 43 43 43 44 44 44 45 45 45 45 44 44 44 43 41 42 42 40 37 35 34 33 31 30 30 30 30 30 30 32 34 33
40 41 42 43 43 43 44 45 46 47 47 46 45 46 48 49 50 52 53 53 54 53 49 50 51 49 48 46 45 45 42 39 38 37 37 39 37 35 36 36 35 34 34 33 33 33 33 32 33 34 34 37 40 40 40 42 43 43 44 45 44 45 46 45 44 45 44 44 44 44 43 43 42 39 37 35 33 33 33 32 32 33 34 34 33 34 32 31
42 43 44 45 46 46 46 47 48 48 48 48 48 49 50 50 51 52 53 53 54 53 51 51 52 51 49 46 46 46 41 38 38 38 38 39 38 37 37 36 34 34 34 33 33 33 32 33 34 32 32 36 38 39 40 42 42 43 44 45 45 44 43 44 45 46 45 45 45 46 46 44 43 42 40 37 35 35 36 35 33 33 34 33 32 32 31 31
43 44 45 46 48 48 48 49 50 50 50 50 50 51 51 52 52 53 54 55 54 52 52 54 54 52 50 48 48 48 43 39 40 40 38 38 37 37 38 38 37 35 34 33 34 34 33 34 34 32 34 36 36 36 39 40 42 44 44 45 45 44 44 44 45 44 45 46 47 48 48 45 44 44 42 39 38 35 33 31 29 29 30 30 30 32 33 34
43 44 45 47 48 49 50 50 51 52 51 52 52 52 52 53 54 55 56 56 54 52 56 57 54 53 51 48 49 49 44 42 43 42 38 37 38 38 38 39 37 34 35 36 36 36 34 34 34 33 34 36 36 37 40 40 43 45 45 45 46 46 47 47 45 44 46 48 48 49 48 46 47 47 43 40 37 30 27 27 27 28 30 30 31 32 32 35
44 44 45 46 47 49 50 50 51 51 51 52 52 52 53 53 54 56 56 56 55 56 58 58 54 53 51 49 51 52 46 44 45 43 41 43 43 40 39 39 37 37 38 39 38 36 35 35 34 32 33 35 36 38 41 43 44 44 44 46 47 48 50 49 48 49 49 50 49 49 49 48 48 47 44 41 37 30 29 32 33 34 36 36 35 34 34 36
44 44 45 46 47 48 49 50 51 50 50 51 51 51 52 52 54 56 56 57 57 57 59 58 55 54 52 52 55 54 49 47 47 45 46 48 45 41 42 42 41 41 40 40 40 38 36 35 33 31 32 34 35 37 40 42 43 43 44 46 47 47 49 49 50 52 52 52 52 51 51 51 49 47 44 42 41 40 41 42 43 45 46 46 46 46 47 47
45 45 45 45 46 47 48 49 49 49 49 50 50 51 52 52 54 55 56 57 58 58 58 58 55 54 53 54 57 56 51 49 48 47 48 47 44 43 44 43 43 42 39 41 42 38 35 35 35 34 34 34 36 39 40 40 41 42 44 45 45 47 49 49 51 52 52 53 53 53 53 53 51 49 46 44 43 45 48 48 47 50 51 51 52 53 54 55
44 44 44 43 43 42 43 44 45 45 45 46 47 49 50 50 52 55 55 58 59 58 57 56 55 54 52 53 56 55 50 48 48 48 49 47 46 46 46 44 44 43 40 42 44 41 40 40 40 40 38 38 39 40 40 40 40 40 40 41 44 47 49 50 51 51 51 51 53 53 53 52 50 48 47 47 44 43 48 50 49 51 53 53 54 54 54 55
39 39 39 38 37 37 37 37 38 38 39 40 41 44 45 45 48 52 54 57 59 58 56 55 55 53 52 53 56 54 51 50 50 48 49 49 48 49 48 46 47 46 44 46 47 45 44 43 43 44 43 42 41 40 42 42 41 40 41 42 45 47 50 51 51 50 50 51 52 53 52 52 52 50 49 48 44 42 45 48 49 53 56 56 56 57 57 58
34 34 34 34 33 33 33 32 32 33 34 35 36 38 41 41 43 48 50 52 56 56 55 56 55 54 54 55 56 54 52 51 50 50 51 52 51 50 49 48 48 48 49 50 49 46 44 43 43 45 47 45 43 42 43 43 42 43 45 46 46 47 48 48 47 48 50 52 53 52 51 52 53 51 49 50 49 47 47 48 51 56 59 59 58 58 58 59
31 32 32 32 32 32 32 30 29 30 31 32 33 34 37 37 39 43 46 48 51 51 51 52 53 54 56 57 56 55 53 52 52 54 53 52 51 50 50 49 49 50 52 53 50 46 45 43 42 45 47 47 47 47 45 43 44 46 48 49 48 46 45 45 46 48 49 51 52 52 51 52 52 51 50 51 52 54 55 55 58 61 62 61 61 60 60 61
30 31 31 31 31 31 30 28 27 27 27 29 30 32 33 35 36 39 41 43 45 47 47 47 49 52 56 58 57 56 54 53 53 52 51 50 51 51 51 51 51 52 53 53 50 47 46 44 43 44 46 47 49 51 51 48 48 49 49 50 50 47 43 39 39 42 46 50 53 53 53 53 52 52 52 52 53 55 56 58 59 60 62 62 61 61 61 61
29 29 29 29 29 29 28 26 25 24 24 25 27 29 31 33 34 35 37 39 41 44 44 44 46 50 54 57 57 55 54 54 52 50 51 51 52 53 54 54 54 54 55 54 52 49 48 47 46 45 45 47 49 52 54 54 53 52 51 50 51 50 45 38 32 31 36 46 52 54 54 54 54 53 53 53 54 54 55 57 57 57 58 59 60 60 60 61
27 27 26 26 26 26 25 24 23 22 21 22 24 26 27 29 31 32 34 35 37 39 39 41 45 49 51 55 57 57 58 59 56 54 56 56 55 56 56 56 56 57 58 56 53 50 48 48 48 47 46 47 49 52 54 56 56 55 54 53 52 52 50 46 42 37 36 39 46 51 54 54 53 53 54 54 54 54 55 56 57 57 57 57 57 57 59 59
24 24 24 23 22 22 22 21 20 20 19 19 20 21 23 25 27 28 29 31 34 35 36 39 44 46 48 53 57 60 62 62 60 59 60 58 57 57 57 57 58 59 58 55 52 50 51 51 50 50 49 48 49 51 54 55 56 55 55 56 56 56 55 54 52 50 47 46 47 49 52 53 52 54 55 55 55 56 58 59 59 61 61 59 57 57 57 58
Wind_Direction
262 261 261 260 259 259 258 258 258 258 257 257 256 256 256 256 256 256 256 256 256 257 257 257 257 257 258 258 258 259 259 259 259 259 258 258 257 257 257 257 256 256 256 255 255 254 254 254 253 253 253 252 252 252 252 252 252 252 251 251 252 252 253 253 253 253 253 255 257 258 258 257 255 255 256 257 258 259 260 261 262 263 263 264 265 266 267 268
261 261 260 259 259 259 259 259 258 258 257 257 257 256 257 257 257 257 258 258 258 258 258 258 258 259 259 259 260 260 260 260 260 260 260 259 259 258 258 257 257 257 256 256 255 255 254 254 254 253 253 253 252 252 252 252 252 252 252 252 252 252 252 252 252 253 253 256 257 256 256 256 256 256 257 258 258 259 260 261 262 262 263 263 264 266 267 268
261 260 259 259 259 259 259 258 258 258 258 257 257 258 258 258 258 259 259 259 259 259 259 260 260 260 261 261 261 261 261 261 262 262 261 260 260 259 259 258 258 257 257 256 256 255 254 254 253 253 253 252 252 252 252 252 252 252 252 252 252 252 252 252 252 253 254 256 256 256 255 256 256 257 257 258 259 259 259 260 261 262 262 263 264 265 267 268
262 261 260 259 259 259 259 258 258 258 258 258 259 259 259 259 260 260 260 260 260 260 261 261 261 262 262 262 263 263 263 263 263 263 262 261 261 260 260 259 259 258 258 257 256 256 255 254 253 253 252 252 252 252 252 252 252 252 252 252 252 252 252 252 253 255 255 255 256 256 255 255 256 257 257 258 258 259 260 260 260 261 262 263 264 264 266 267
261 261 260 260 259 259 259 259 259 259 259 260 260 260 260 261 261 261 261 261 262 262 262 262 263 263 263 264 264 264 264 264 264 264 263 263 262 261 261 260 259 259 258 257 257 256 255 254 253 253 252 251 251 251 251 251 251 251 251 251 251 251 252 253 254 255 255 255 256 255 255 256 257 257 257 257 258 259 260 261 261 261 262 263 264 264 265 267
261 260 260 260 260 259 259 259 259 260 260 261 261 261 261 261 262 262 262 263 263 263 264 264 264 265 265 265 266 266 266 265 265 265 264 263 263 262 261 260 259 259 258 257 257 256 255 254 253 253 252 251 250 250 250 250 250 250 250 250 251 251 252 253 253 253 255 255 255 255 256 257 256 257 257 258 258 259 260 260 261 262 262 263 263 263 263 264
260 259 259 259 259 259 259 259 260 260 261 261 261 262 262 262 263 263 263 264 264 265 265 266 266 266 267 267 267 267 267 267 266 265 265 264 263 262 261 260 259 258 258 257 256 255 255 254 253 252 251 251 250 249 249 249 249 249 249 250 250 251 251 252 253 252 253 254 254 255 256 256 256 256 258 258 259 259 259 260 260 260 261 261 262 263 262 262
258 258 258 258 258 258 259 259 259 260 260 261 262 262 263 263 264 264 265 265 266 266 267 267 268 268 268 268 268 268 268 267 266 265 265 263 262 261 261 260 259 258 257 256 255 255 254 253 253 252 251 250 249 249 249 249 249 249 249 249 249 250 250 251 252 251 252 253 254 255 255 255 256 256 257 258 258 259 259 259 260 260 260 260 260 262 262 262
258 258 257 257 257 258 258 258 259 260 260 261 262 263 263 264 265 265 266 266 267 268 268 269 269 269 269 269 269 269 268 267 266 265 264 263 262 261 260 259 258 257 256 255 254 254 253 252 252 251 251 250 249 249 249 249 248 248 248 248 249 249 250 250 251 250 251 252 253 254 254 254 255 256 257 257 258 259 259 259 259 260 260 259 259 259 260 260
259 259 258 258 258 258 258 259 259 260 261 261 262 263 264 264 265 266 267 267 268 269 269 270 270 270 270 270 270 269 269 267 266 265 264 263 262 261 260 259 257 256 255 254 254 253 252 252 251 251 250 250 249 249 248 248 247 247 247 248 248 249 249 249 250 250 250 251 251 252 253 254 255 255 256 257 257 258 259 259 259 259 260 259 259 259 258 258
260 259 259 259 259 259 259 259 260 260 261 261 262 263 264 265 266 267 268 268 269 270 270 271 271 271 272 271 271 270 268 267 265 265 264 262 261 260 259 258 257 256 255 254 253 252 252 251 251 251 250 249 249 248 247 247 247 247 247 248 248 248 248 249 249 249 250 250 251 251 253 254 255 255 256 256 256 258 259 260 259 259 259 260 260 260 259 259
260 260 260 260 259 259 259 259 260 260 261 262 262 263 264 265 266 267 268 269 270 271 271 272 272 272 273 272 271 270 268 266 265 264 263 261 260 259 258 257 256 255 254 254 253 252 252 251 251 250 249 248 248 248 247 247 247 248 247 248 248 248 248 248 249 249 249 250 250 251 253 253 254 254 254 255 256 257 258 259 259 259 259 260 261 261 261 260
261 261 261 260 260 260 260 260 260 261 261 262 263 264 265 266 267 268 269 270 271 272 273 273 273 273 273 272 271 270 267 266 264 263 262 260 259 258 257 257 256 255 254 253 253 252 251 250 250 249 248 248 248 247 247 247 247 247 247 247 247 247 248 248 248 249 249 249 250 251 252 253 253 253 254 255 256 256 257 258 259 260 259 260 261 261 261 261
263 262 262 262 261 261 261 261 261 261 261 262 263 264 265 267 268 269 270 271 272 273 274 274 274 273 272 271 270 268 266 265 264 261 260 259 258 258 257 257 256 256 255 253 252 251 251 250 249 248 248 247 247 246 246 246 246 246 246 246 247 247 248 248 248 248 249 249 250 250 251 252 253 254 254 255 255 255 256 257 258 259 259 260 260 261 261 261
263 263 263 262 262 262 262 262 262 262 263 263 264 265 266 267 268 270 271 272 273 273 274 273 273 272 271 270 268 266 265 264 262 260 259 259 259 259 259 258 257 256 255 254 252 251 250 249 248 248 247 246 246 246 245 245 245 246 246 246 247 247 247 248 248 248 248 249 249 250 251 252 252 253 254 253 253 255 256 256 258 258 258 258 259 260 260 260
264 263 263 262 262 262 262 263 263 263 264 264 264 265 266 267 269 270 271 272 273 273 273 273 272 271 269 268 267 265 264 262 260 260 260 259 259 259 259 259 258 256 255 254 252 251 250 249 248 247 246 245 246 245 244 244 245 246 246 246 247 247 246 247 248 247 248 249 249 250 250 251 252 252 254 254 253 254 256 255 256 257 257 257 258 259 260 260
264 263 262 262 261 261 262 262 262 263 264 264 265 265 266 267 268 270 271 272 272 272 272 271 270 269 268 267 265 263 263 261 261 260 260 260 260 260 259 258 257 256 255 254 252 251 250 249 247 247 246 245 245 245 243 244 245 245 246 245 245 245 245 246 247 246 247 249 248 249 250 250 251 252 253 254 252 253 254 254 255 256 256 256 257 258 259 260
263 262 262 261 261 260 261 261 262 262 263 264 264 265 266 267 268 269 270 270 270 270 270 269 268 268 267 265 264 263 263 262 261 261 261 261 260 260 259 258 257 256 254 254 252 251 250 249 248 247 246 246 245 244 243 243 243 243 243 243 243 244 244 245 247 246 245 247 248 247 250 250 250 251 252 253 252 251 252 253 254 256 256 255 257 258 260 261
263 262 261 260 260 260 260 260 261 261 262 263 264 264 265 266 267 268 268 268 269 269 268 268 267 267 266 264 263 263 262 261 261 262 263 262 261 260 259 258 257 256 255 254 252 251 250 249 247 246 245 244 244 243 241 241 241 242 242 243 243 243 244 244 247 247 243 245 248 246 248 250 249 251 252 251 250 250 251 253 254 255 256 256 256 257 259 259
263 262 260 259 259 259 259 259 260 260 261 262 263 264 264 265 265 266 267 267 267 267 266 266 266 265 264 264 263 262 262 262 263 263 263 263 263 261 259 258 257 256 255 253 252 250 249 248 247 245 243 242 242 241 241 240 241 242 243 243 243 243 244 244 245 248 243 241 247 246 246 250 249 249 251 250 250 250 251 252 254 255 256 256 256 256 257 258
263 262 260 259 258 258 258 258 259 259 260 261 262 263 263 264 264 264 266 266 266 266 265 265 265 265 264 264 263 262 262 263 263 264 264 264 263 261 259 258 257 257 255 253 252 250 248 247 245 243 242 241 241 240 240 241 241 241 241 241 241 241 241 242 243 246 243 239 244 246 245 249 248 248 250 249 249 252 252 251 254 256 256 255 255 255 258 258
263 262 260 259 258 257 257 257 257 258 259 260 261 262 262 263 263 263 265 265 264 264 264 264 264 264 263 263 263 262 263 264 264 265 265 264 263 260 259 258 257 256 255 253 251 248 246 244 243 242 241 240 240 240 240 240 239 239 239 239 239 239 240 241 241 244 244 239 242 245 243 247 247 246 249 250 249 252 254 252 253 256 255 254 254 255 257 256
263 261 260 258 257 257 256 256 256 256 257 258 260 261 262 262 262 262 263 263 263 262 263 263 262 263 264 263 263 263 263 264 265 265 266 265 263 260 259 258 257 256 254 251 248 246 244 243 242 241 241 240 239 240 239 238 237 236 237 237 238 238 239 240 240 243 244 239 241 243 242 244 248 248 250 251 249 250 254 254 253 255 256 254 254 254 254 254
261 260 258 257 256 256 256 255 255 255 256 257 258 260 261 261 261 261 261 261 262 261 261 263 261 261 264 264 264 263 263 264 264 265 266 265 264 261 259 259 258 255 252 249 247 245 243 242 241 241 240 239 237 237 237 236 236 236 237 237 238 238 239 240 241 242 243 240 241 245 244 245 249 250 250 251 249 249 252 254 253 255 257 256 255 253 254 254
261 259 257 256 255 255 255 255 254 254 254 255 256 258 259 260 260 260 259 258 260 260 260 262 262 260 262 264 264 263 263 263 263 265 266 266 265 262 260 260 258 254 251 248 246 244 243 241 241 240 239 237 235 236 236 235 235 235 236 236 237 237 238 240 242 242 243 241 242 245 245 245 248 249 249 251 250 250 252 253 254 256 258 257 255 255 255 255
262 259 257 255 255 254 254 254 253 252 252 253 254 255 257 258 258 257 256 256 258 259 259 261 262 261 261 263 263 263 262 262 263 266 267 266 264 263 262 260 257 254 251 248 246 244 242 240 240 239 237 235 235 235 235 235 235 235 235 236 237 238 238 240 243 243 243 241 242 245 245 245 248 249 250 251 251 251 253 255 255 256 257 256 255 256 256 255
263 260 258 256 254 254 253 253 251 250 250 250 251 253 255 256 256 255 254 254 257 258 259 260 261 261 261 262 263 263 262 263 263 264 266 267 267 265 263 261 258 255 252 249 245 243 241 238 237 236 235 235 234 234 235 235 234 234 235 236 237 238 239 241 243 244 244 243 243 245 246 245 247 249 251 252 252 252 254 256 256 256 257 255 253 253 251 248
263 261 258 256 254 253 252 251 250 249 247 248 250 252 254 255 255 254 252 253 256 258 258 259 260 260 261 262 262 262 262 262 263 264 267 269 268 265 262 261 259 255 252 248 245 243 241 237 235 235 235 234 234 234 234 234 234 234 234 236 237 238 239 241 242 242 243 245 245 246 247 247 247 250 252 253 253 253 254 256 257 257 257 256 253 250 247 243
264 261 259 256 254 252 251 250 249 248 247 247 249 251 252 254 254 252 250 252 256 257 256 258 260 259 260 261 262 262 261 261 263 264 266 267 265 263 262 262 261 257 252 248 245 243 240 236 235 235 234 233 232 232 233 233 234 234 234 236 237 237 238 240 241 242 242 244 245 246 248 248 248 250 252 254 255 255 254 255 257 258 258 258 254 249 245 240
264 261 258 255 253 252 250 249 249 249 248 247 248 250 251 252 252 249 250 252 255 256 256 257 259 259 259 260 261 262 261 261 262 264 264 264 265 265 263 263 262 258 253 249 246 243 239 235 234 233 232 232 231 231 231 232 232 232 233 234 235 235 236 238 240 241 242 242 244 245 247 249 250 250 250 252 254 255 256 257 258 258 257 257 254 248 244 239
266 263 259 256 254 252 251 250 249 249 249 248 248 249 250 251 250 249 251 252 253 255 256 257 259 259 259 259 260 261 261 261 261 261 262 264 264 264 263 262 261 258 254 250 245 242 238 234 232 231 231 231 230 230 230 230 231 231 231 233 234 234 234 236 238 241 242 242 243 244 246 247 249 250 250 251 254 257 258 257 256 257 257 255 252 247 239 233
267 265 262 258 255 253 252 251 250 249 250 250 250 249 249 250 249 249 251 251 253 254 256 258 259 259 260 259 258 259 259 260 260 260 261 263 263 263 262 261 262 261 257 251 246 242 238 234 233 233 233 232 231 230 231 231 231 232 232 233 235 235 234 235 237 239 241 242 242 243 244 245 247 250 250 251 253 255 257 257 257 257 257 254 252 247 232 226
268 265 263 260 257 254 253 252 252 251 250 250 250 250 249 248 248 249 250 252 253 254 255 258 259 259 259 258 257 258 258 259 260 260 260 261 262 261 260 260 261 259 255 251 249 244 240 237 235 235 234 233 232 231 231 232 232 232 233 233 235 236 235 236 238 239 240 240 241 242 243 244 246 248 250 250 250 249 251 255 255 253 250 249 247 242 235 232
268 266 263 261 258 256 254 254 254 253 252 251 251 250 250 249 247 248 250 252 254 255 256 258 259 259 259 258 257 257 257 257 258 260 260 260 261 259 257 256 257 257 254 251 248 244 240 238 235 234 233 232 232 232 231 231 232 233 234 234 236 237 237 236 238 239 239 240 242 244 244 244 246 248 250 250 250 249 248 247 248 247 247 249 246 233 228 236
267 266 264 262 260 258 256 256 255 255 254 253 252 252 251 249 247 248 250 253 255 256 257 257 258 258 258 258 257 256 256 255 255 257 257 257 258 256 254 252 252 254 254 251 248 244 240 237 235 233 232 232 233 232 232 232 232 233 233 233 235 237 238 238 239 240 241 242 244 245 245 245 247 248 249 249 249 250 248 245 244 242 240 243 244 230 222 231
266 266 265 264 262 260 258 258 257 257 256 255 254 253 252 250 249 249 251 253 255 256 256 257 257 257 257 258 257 255 254 253 253 255 256 255 254 253 252 250 249 251 251 248 246 243 240 238 236 234 232 232 233 232 231 231 231 233 234 233 234 236 238 238 239 241 241 242 244 244 244 245 246 247 248 249 248 246 246 244 239 234 232 233 236 235 230 233
267 266 266 265 264 262 261 260 259 258 257 256 255 254 252 251 250 250 251 252 255 256 256 257 256 255 255 256 256 255 253 253 253 253 254 253 252 251 249 246 245 246 246 245 243 242 240 238 237 236 234 233 233 231 231 232 232 232 234 234 233 235 236 237 240 241 242 243 244 245 245 246 247 246 245 245 244 244 243 240 233 228 229 230 234 240 241 239
268 268 267 266 265 263 262 261 260 259 258 257 256 254 252 251 251 251 251 252 255 255 254 255 255 254 254 255 256 255 253 253 253 251 251 252 251 249 246 245 245 246 246 244 241 240 239 237 235 235 235 236 235 232 231 233 233 232 234 235 234 236 237 239 240 241 242 244 245 244 243 243 246 246 243 241 242 242 241 238 234 233 236 239 240 242 243 240
268 268 267 267 266 264 263 262 261 260 259 258 256 254 253 253 252 252 253 252 253 254 254 253 254 254 254 254 254 253 251 249 251 250 249 249 249 249 248 245 243 243 243 243 241 240 237 236 235 233 234 236 236 233 232 233 234 232 233 235 235 237 239 240 240 241 242 244 245 245 243 242 244 245 244 244 242 240 241 243 242 241 243 243 238 236 237 237
269 268 268 267 267 266 264 263 262 261 260 258 257 255 255 254 253 252 253 252 252 252 253 252 251 252 252 252 252 251 249 246 246 245 247 248 247 247 247 245 241 241 242 240 238 237 236 236 235 231 232 235 235 235 234 233 234 233 232 233 234 234 236 238 240 242 242 243 244 246 246 244 244 243 242 243 243 243 245 247 244 241 239 235 233 236 240 240
270 270 269 268 268 267 266 264 263 262 261 259 258 256 255 254 254 253 252 252 252 251 251 250 250 250 251 251 252 251 248 245 243 242 242 243 241 240 242 244 243 242 241 237 234 234 234 236 236 231 232 235 233 234 235 233 234 234 231 232 233 232 233 235 237 239 240 241 242 244 246 244 243 243 240 239 243 246 245 240 233 230 230 229 232 238 243 246
272 271 270 269 269 268 267 266 265 263 262 261 259 257 256 255 254 253 253 252 251 249 250 250 250 249 249 248 248 247 244 242 241 240 236 234 235 235 236 239 238 237 238 239 238 235 232 234 237 236 237 237 235 235 236 235 235 236 234 234 234 233 234 234 236 238 240 241 242 243 245 244 244 244 240 236 234 231 232 233 228 223 223 224 224 225 229 234
275 273 272 271 270 269 269 268 267 265 264 262 261 259 257 255 253 253 252 251 249 248 248 249 247 247 246 244 245 245 242 238 238 237 235 235 236 235 233 234 235 234 236 239 239 235 230 231 234 236 238 238 238 238 238 237 237 237 236 235 236 236 237 236 236 238 239 241 243 244 245 245 245 244 241 236 230 224 225 231 232 229 230 232 230 228 228 229
278 277 275 274 272 271 270 269 268 266 265 263 262 259 256 254 253 251 250 250 249 247 247 247 246 245 243 242 243 243 241 239 237 235 235 235 235 234 232 232 234 234 235 238 239 235 229 227 227 229 230 232 234 237 239 238 239 238 236 236 236 237 238 238 237 238 240 241 243 244 245 246 246 246 244 241 236 232 231 234 238 238 238 239 238 237 236 235
281 280 279 277 275 273 272 270 269 267 265 262 260 258 256 253 252 251 249 248 248 246 245 245 245 243 242 242 243 244 242 240 237 235 234 234 232 231 231 230 231 232 233 236 238 235 229 224 223 224 225 227 230 235 238 238 239 241 241 240 238 237 238 239 239 239 240 242 244 245 246 247 246 246 246 244 240 240 240 240 241 242 240 239 239 239 240 241
282 282 281 281 279 277 274 272 270 268 265 261 259 258 256 252 249 248 247 246 246 246 244 243 242 241 239 239 241 242 239 237 235 233 233 232 230 229 229 228 229 231 230 231 233 234 233 229 225 225 225 227 229 234 239 238 237 239 240 240 239 238 238 239 240 242 242 242 243 245 246 247 245 243 243 243 240 239 241 241 241 243 242 240 240 242 243 244
286 286 286 286 285 283 280 277 274 272 268 264 259 256 255 251 247 247 246 245 245 245 242 240 239 237 236 235 237 238 237 235 233 231 229 229 228 228 228 228 229 230 232 232 233 234 236 234 231 228 227 227 226 230 237 239 236 235 237 239 239 239 239 240 241 242 242 242 243 243 245 246 247 245 244 244 240 235 235 235 236 240 242 242 242 243 244 245
291 292 293 292 291 288 285 282 278 274 271 267 263 258 256 253 248 246 245 245 245 245 243 240 238 235 234 234 233 234 234 232 231 230 228 228 228 227 228 228 228 229 232 234 234 233 235 236 234 233 231 228 226 227 231 236 235 233 234 238 240 239 239 241 242 241 242 244 245 245 245 246 248 248 246 245 243 240 237 237 238 241 244 245 245 246 247 249
295 296 296 295 294 292 290 287 282 276 271 267 264 260 257 254 250 247 245 244 244 243 241 238 236 234 233 232 231 230 231 231 231 232 231 229 227 227 226 227 228 229 231 235 235 233 234 236 236 236 236 233 230 229 229 232 234 235 235 237 240 239 236 238 243 246 246 246 245 244 244 246 247 248 247 246 246 246 245 243 242 243 245 246 247 248 249 251
297 298 299 299 298 296 294 291 287 281 275 269 264 260 256 253 251 248 245 243 241 241 239 234 232 231 229 229 229 227 228 229 229 230 231 228 225 225 225 225 226 227 230 233 235 234 233 234 236 238 239 238 235 234 233 232 235 237 237 238 241 240 235 228 229 236 244 247 247 246 245 246 246 247 247 248 249 250 251 250 247 245 245 246 248 249 249 250
302 304 304 304 302 301 298 296 292 286 279 272 266 261 257 253 250 247 244 242 239 239 237 233 231 229 226 225 225 222 222 224 224 223 225 225 223 223 224 224 225 227 229 231 233 235 235 234 234 236 237 238 237 236 236 236 236 237 238 239 242 243 240 231 224 222 229 240 244 244 243 244 245 246 245 246 247 248 250 252 251 250 249 248 249 250 251 252
308 308 309 308 306 304 302 300 297 292 286 278 270 264 259 254 251 247 243 240 238 235 232 229 229 228 226 224 222 219 219 221 222 221 222 223 223 223 224 224 225 228 231 231 232 234 235 235 233 233 234 235 236 237 238 238 238 238 238 239 240 242 243 240 235 230 229 233 239 239 239 240 242 242 242 242 244 246 248 250 251 252 253 252 252 253 253 254